Volver al catálogo

YAOGAN-35 02A

ActivoMilitarVLEO
NORAD 52907·PAYLOAD·🇨🇳 China

Lanzado Jun 23, 2022 desde Xichang Satellite Launch Center

Loading…

Próximos Pases (próximas 24 horas)

TLE

ActualizadoSource: Space-Track

Época: Sep 14, 2026, 13:54 UTC

1 52907U 22068A   26257.57918223  .00005398  00000-0  21116-3 0  9999
2 52907  34.9921 294.8754 0011018 173.1562 186.9305 15.25140849235548

Sigue YAOGAN-35 02A en tiempo real con AllMySat

Download on the App Store